FW0251 Weather Reports


time (UTC)temp
F
wind
direction
speed
knots
gust
knots
rain 1hr
in
rain 24hr
in
rain mn
in
humidity
%
barometer
mb
20260507180033 55 198 0.0 2.6 0.00 0.03 0.03 68 1010.9
20260507174541 55 78 0.0 1.7 0.00 0.03 0.03 68 1011.0
20260507173036 55 163 0.0 1.7 0.00 0.03 0.03 66 1011.0
20260507171532 55 149 0.0 1.7 0.00 0.03 0.03 66 1011.1
20260507170029 55 123 0.0 1.7 0.00 0.03 0.03 59 1011.1
20260507164529 54 144 0.0 1.7 0.00 0.03 0.03 59 1011.7
20260507163028 54 248 0.0 1.7 0.00 0.03 0.03 58 1011.7
20260507161534 53 121 0.0 0.9 0.01 0.03 0.03 55 1011.6
20260507160028 53 120 0.0 1.7 0.01 0.03 0.03 53 1011.9
20260507154533 53 205 0.0 1.7 0.01 0.03 0.03 59 1012.0
20260507153036 54 113 0.0 2.6 0.02 0.03 0.03 56 1012.4
20260507151521 55 78 0.0 1.7 0.01 0.02 0.02 53 1012.1
20260507150021 55 188 0.0 1.7 0.01 0.04 0.02 54 1011.9
20260507144517 56 175 0.0 1.7 0.01 0.04 0.02 59 1011.9
20260507143022 57 188 0.0 2.6 0.00 0.03 0.01 66 1012.1
20260507141515 57 241 0.0 2.6 0.00 0.03 0.01 67 1011.8
20260507140013 57 92 0.9 3.5 0.00 0.08 0.01 69 1012.2
20260507134514 57 217 0.0 3.5 0.00 0.08 0.01 68 1012.2
20260507133012 57 76 0.0 1.7 0.00 0.08 0.01 68 1012.0
20260507131517 57 219 0.0 2.6 0.00 0.08 0.01 66 1011.6
20260507130021 57 225 0.0 1.7 0.00 0.08 0.01 68 1012.0
20260507124516 57 265 0.9 2.6 0.00 0.08 0.01 70 1011.8
20260507123010 57 69 0.0 2.6 0.00 0.08 0.01 68 1011.3
20260507121509 56 260 0.0 1.7 0.00 0.08 0.01 67 1011.6
20260507120016 56 215 0.0 2.6 0.00 0.08 0.01 69 1011.5
20260507114508 56 80 0.0 2.6 0.00 0.08 0.01 69 1011.7
20260507113006 56 181 0.9 3.5 0.00 0.08 0.01 68 1011.4
20260507111506 56 206 0.0 1.7 0.00 0.08 0.01 69 1011.2
20260507110004 56 98 0.9 2.6 0.00 0.08 0.01 67 1010.8
20260507104504 56 247 0.0 4.3 0.00 0.08 0.01 67 1010.9
20260507103002 56 223 0.0 2.6 0.00 0.08 0.01 63 1010.9
20260507101501 57 239 0.0 1.7 0.00 0.08 0.01 61 1010.5
20260507100100 57 119 0.0 2.6 0.00 0.08 0.01 62 1010.4
20260507094559 57 242 0.0 2.6 0.00 0.08 0.01 63 1011.0
20260507093059 57 84 0.0 2.6 0.00 0.08 0.01 61 1010.9
20260507091556 57 110 0.0 1.7 0.00 0.08 0.01 59 1010.7
20260507090054 58 91 0.9 2.6 0.00 0.08 0.01 58 1010.4
20260507084551 59 155 0.0 3.5 0.00 0.08 0.01 57 1010.5
20260507083047 60 81 0.0 2.6 0.00 0.08 0.01 52 1010.3
20260507081543 62 173 0.0 1.7 0.00 0.08 0.01 49 1010.3
20260507080041 64 237 0.0 1.7 0.01 0.08 0.01 39 1010.1
20260507074536 65 275 0.0 1.7 0.01 0.08 0.01 29 1009.4
20260507073028 65 77 1.7 2.6 0.01 0.08 0.01 32 1009.0
20260507071556 66 121 0.0 0.9 0.01 0.08 0.01 33 1009.1
20260507070024 66 121 0.0 0.0 0.01 0.08 0.01 35 1009.4
20260507064523 66 121 0.0 0.0 0.00 0.07 0.00 37 1009.1
20260507063021 67 121 0.0 0.9 0.00 0.07 0.00 40 1008.7
20260507061520 67 76 0.0 0.9 0.00 0.07 0.00 44 1008.7
20260507060023 67 76 0.0 0.9 0.00 0.07 0.00 48 1008.4
20260507054518 67 76 0.0 0.9 0.00 0.07 0.00 52 1008.5
20260507053017 67 76 0.0 1.7 0.00 0.07 0.00 54 1008.6
20260507051527 67 142 0.0 1.7 0.00 0.07 0.00 54 1008.6
20260507050013 67 156 0.0 1.7 0.00 0.07 0.00 53 1009.1
20260507044508 67 80 0.0 2.6 0.00 0.07 0.00 50 1009.4
20260507043011 66 114 0.0 1.7 0.00 0.07 0.00 49 1009.6
20260507041507 66 150 0.0 0.9 0.00 0.07 0.00 48 1009.8
20260507040003 67 150 0.0 0.0 0.00 0.07 0.07 50 1009.3
20260507034505 67 150 0.0 0.0 0.00 0.07 0.07 50 1009.6
20260507033010 67 150 0.0 0.0 0.00 0.07 0.07 50 1010.0
20260507031502 66 150 0.0 0.9 0.00 0.07 0.07 49 1009.5
20260507030003 66 150 0.0 0.9 0.00 0.07 0.07 49 1009.4
20260507024501 66 276 0.0 0.9 0.00 0.07 0.07 49 1009.0
20260507023100 66 211 0.0 0.9 0.00 0.07 0.07 50 1009.1
20260507021600 66 211 0.0 0.0 0.00 0.07 0.07 52 1009.1
20260507020101 66 211 0.0 0.0 0.00 0.07 0.07 55 1009.6
20260507014619 67 211 0.0 0.0 0.00 0.07 0.07 57 1009.5
20260507013058 67 211 0.0 0.9 0.00 0.07 0.07 59 1009.6
20260507011604 67 211 0.0 0.0 0.00 0.07 0.07 61 1009.5
20260507010109 68 211 0.0 0.0 0.00 0.07 0.07 63 1009.5
20260507004657 68 211 0.0 0.9 0.00 0.07 0.07 64 1009.2
20260507003059 68 211 0.0 0.9 0.00 0.07 0.07 66 1009.5
20260507001557 68 213 0.0 2.6 0.00 0.07 0.07 67 1009.5
20260507000056 69 109 0.0 1.7 0.00 0.07 0.07 68 1009.6
20260506234555 69 43 0.0 1.7 0.00 0.07 0.07 69 1009.6
20260506233058 69 201 0.0 2.6 0.00 0.07 0.07 69 1009.3
20260506231553 70 195 0.0 2.6 0.00 0.07 0.07 70 1009.3
20260506230053 70 221 0.0 2.6 0.00 0.07 0.07 70 1009.1
20260506224553 70 194 0.9 3.5 0.00 0.07 0.07 70 1009.1
20260506223052 70 191 0.0 2.6 0.00 0.07 0.07 70 1009.2
20260506221552 69 275 0.0 2.6 0.00 0.07 0.07 70 1009.3
20260506220051 70 63 0.0 2.6 0.00 0.07 0.07 70 1009.3
20260506214601 70 110 0.0 2.6 0.00 0.07 0.07 70 1009.0
20260506213049 70 296 0.0 3.5 0.00 0.07 0.07 70 1009.2
20260506211549 70 236 0.0 2.6 0.00 0.07 0.07 70 1009.2
20260506210048 70 333 0.0 6.1 0.00 0.07 0.07 70 1009.3
20260506204550 70 211 0.0 3.5 0.00 0.07 0.07 68 1009.2
20260506203045 69 188 0.9 2.6 0.00 0.07 0.07 62 1009.2
20260506201545 68 74 0.0 1.7 0.00 0.07 0.07 64 1009.1
20260506200048 68 188 0.9 2.6 0.00 0.07 0.07 62 1008.9
20260506194544 67 243 0.0 3.5 0.00 0.07 0.07 65 1009.5
20260506193043 67 355 0.0 1.7 0.00 0.07 0.07 63 1009.2
20260506191545 67 48 0.0 2.6 0.00 0.07 0.07 60 1009.0
20260506190039 66 252 0.0 2.6 0.00 0.07 0.07 57 1009.7
20260506184538 65 226 0.0 2.6 0.00 0.07 0.07 56 1009.9
20260506183038 65 261 0.0 4.3 0.00 0.07 0.07 57 1010.0
20260506181544 65 175 0.0 4.3 0.00 0.07 0.07 59 1010.0